[[{"header":{"parameterUnit":"m.s-1","parameterCategory":1,"la1":30.2991,"la2":30.254,"lo1":-89.0895,"lo2":-89.0444,"dy":0.0017,"dx":0.0017,"nx":28,"ny":28,"refTime":"2026-01-03T03:00:00:Z","depth":0,"parameterNumber":2,"parameterNumberName":"U-component_of_WINDS"},"data":[0,0,0,0,0,0,0,0,0,0,0,0,0,0,0,0,0,0,0,0,0,0,0,0,0,0,0,0,0,0,0,0,0,0,0,0,0,0,0,0,0,0,0,0,0,0,0,0,0,0,0,0,0,0,0,0,0,0,-1.2801,-1.2801,0,-1.2847,-1.2848,-1.2848,-1.2829,-1.2827,-1.2826,-1.2825,-1.2876,-1.2878,-1.288,0,0,0,0,0,0,0,0,0,0,0,0,0,-1.2697,-1.2699,-1.2801,-1.2801,-1.2802,-1.2847,-1.2848,-1.2848,-1.2829,-1.2827,-1.2826,-1.2825,-1.2875,-1.2878,-1.288,0,0,0,0,0,0,0,0,0,0,0,0,0,-1.2743,-1.27,-1.2801,-1.2797,-1.2798,-1.2847,-1.2848,-1.2848,-1.2829,-1.2827,-1.2826,-1.2824,-1.2874,-1.2877,-1.2881,-1.2937,0,0,-1.2892,-1.2893,0,0,0,0,0,0,0,0,-1.274,-1.2747,-1.2797,-1.2798,-1.2798,-1.283,-1.2829,-1.2878,-1.2829,-1.2817,-1.2825,-1.2823,-1.2862,-1.2866,-1.2879,-1.2939,-1.2941,-1.2892,-1.2894,-1.2896,-1.2897,0,0,0,0,0,0,0,-1.2737,-1.2744,-1.2819,-1.2798,-1.2799,-1.2794,-1.2799,-1.2839,-1.2849,-1.2818,-1.2817,-1.2822,-1.2862,-1.2876,-1.288,-1.2942,-1.2892,-1.2895,-1.2897,-1.2899,-1.3049,-1.3051,0,0,0,0,0,0,-1.2734,-1.2742,-1.2818,-1.282,-1.2764,-1.2798,-1.2803,-1.2822,-1.2848,-1.285,-1.2824,-1.2821,-1.287,-1.2876,-1.2882,-1.2949,-1.2896,-1.2899,-1.2901,-1.3048,-1.305,-1.3052,0,0,0,0,0,0,-1.2731,-1.274,-1.2816,-1.2781,-1.279,-1.2801,-1.2823,-1.2823,-1.2837,-1.2852,-1.2854,-1.2836,-1.2869,-1.2877,-1.2923,-1.295,-1.2901,-1.2904,-1.3045,-1.3048,-1.3051,-1.3083,0,0,0,0,0,0,-1.2728,-1.274,-1.2761,-1.2781,-1.2792,-1.2856,-1.2824,-1.2826,-1.2843,-1.284,-1.2864,-1.2866,-1.2868,-1.2918,-1.2926,-1.2954,-1.2907,-1.3043,-1.3047,-1.305,-1.3079,-1.3086,-1.3092,0,0,0,0,0,-1.2725,-1.2769,-1.2762,-1.2771,-1.2818,-1.2857,-1.2863,-1.2864,-1.2845,-1.2867,-1.2876,-1.2866,-1.2945,-1.2922,-1.2932,-1.2961,-1.3041,-1.3046,-1.305,-1.3077,-1.3085,-1.3092,0,0,0,0,0,0,-1.2752,-1.2771,-1.2764,-1.2816,-1.2835,-1.2854,-1.2881,-1.2873,-1.2899,-1.2895,-1.2895,-1.2901,-1.2948,-1.2959,-1.2934,-1.3016,-1.2991,-1.2997,-1.3008,-1.3016,-1.3022,-1.3019,-1.291,0,0,0,0,0,-1.2764,-1.2793,-1.2809,-1.2853,-1.2863,-1.287,-1.2887,-1.2886,-1.2906,-1.2914,-1.2927,-1.2948,-1.2977,-1.2997,-1.3025,-1.308,-1.3086,-1.3105,-1.3112,-1.3117,-1.3123,-1.3152,-1.3161,-1.3066,-1.3066,-1.3065,0,0,-1.2789,-1.2803,-1.2822,-1.2859,-1.2873,-1.2904,-1.2877,-1.2911,-1.2934,-1.292,-1.2964,-1.2974,-1.2997,-1.3048,-1.3071,-1.3058,-1.315,-1.3122,-1.3126,-1.3129,-1.3158,-1.3167,-1.3175,-1.3068,-1.3068,-1.3067,0,0,-1.2851,-1.2865,-1.2903,-1.2917,-1.2939,-1.2944,-1.2953,-1.2973,-1.2979,-1.3023,-1.3012,-1.304,-1.3091,-1.3107,-1.3123,-1.3189,-1.3181,-1.3198,-1.3233,-1.3261,-1.3269,-1.3276,-1.33,-1.3308,-1.3204,-1.3204,-1.3204,0,-1.288,-1.2926,-1.2924,-1.2958,-1.2974,-1.2961,-1.3,-1.3015,-1.3045,-1.3057,-1.3042,-1.3105,-1.312,-1.3174,-1.319,-1.3203,-1.3214,-1.3196,-1.3268,-1.3275,-1.3281,-1.3304,-1.3313,-1.3206,-1.3206,-1.3206,-1.3205,0,-1.296,-1.2992,-1.302,-1.3048,-1.3068,-1.3104,-1.3108,-1.3128,-1.3125,-1.3131,-1.3176,-1.3192,-1.3223,-1.3236,-1.3233,-1.329,-1.3281,-1.3267,-1.3241,-1.3292,-1.3313,-1.3322,-1.3209,-1.3208,-1.3208,-1.3207,0,0,-1.3042,-1.3067,-1.3078,-1.309,-1.3113,-1.3138,-1.3173,-1.3203,-1.322,-1.3241,-1.3271,-1.3314,-1.3301,-1.3318,-1.3317,-1.3342,-1.3394,-1.3325,-1.3325,-1.3337,-1.3457,-1.3468,-1.3478,-1.3387,-1.3389,-1.339,-1.3455,0,-1.3106,-1.3167,-1.3166,-1.3224,-1.3253,-1.324,-1.3271,-1.3289,-1.3295,-1.3321,-1.3328,-1.3358,-1.3339,-1.3349,-1.3373,-1.3382,-1.3418,-1.3377,-1.3416,-1.3418,-1.3412,-1.3489,-1.3501,-1.3561,-1.3463,-1.3465,-1.3466,0,-1.3189,-1.3211,-1.3271,-1.3289,-1.3301,-1.3329,-1.3355,-1.338,-1.3399,-1.3402,-1.3421,-1.3415,-1.3452,-1.3424,-1.3475,-1.3447,-1.3463,-1.347,-1.3472,-1.3476,-1.3445,-1.3496,-1.358,-1.3589,-1.3479,-1.3478,-1.3477,0,-1.3242,-1.3288,-1.333,-1.3341,-1.3362,-1.3382,-1.3392,-1.341,-1.3427,-1.345,-1.3461,-1.3489,-1.3504,-1.3525,-1.3527,-1.3507,-1.3578,-1.3551,-1.3582,-1.3582,-1.3599,-1.3598,-1.3687,-1.3608,-1.3608,-1.3607,-1.3607,0,-1.3314,-1.3352,-1.3354,-1.338,-1.3421,-1.3419,-1.3461,-1.3469,-1.3485,-1.3512,-1.3503,-1.3529,-1.353,-1.3556,-1.3558,-1.36,-1.3607,-1.361,-1.3611,-1.3612,-1.3611,-1.3623,-1.3619,-1.361,-1.3609,-1.3609,-1.3608,0,-1.3382,-1.3385,-1.343,-1.3446,-1.3451,-1.3481,-1.3494,-1.3519,-1.3524,-1.3559,-1.3567,-1.3575,-1.3606,-1.3609,-1.3646,-1.3647,-1.3697,-1.3693,-1.369,-1.369,-1.3721,-1.3718,-1.3821,-1.3835,-1.3746,-1.3747,-1.3748,0,-1.3428,-1.3456,-1.3475,-1.3492,-1.3503,-1.3531,-1.3548,-1.3547,-1.3565,-1.3589,-1.3611,-1.364,-1.3664,-1.3714,-1.3723,-1.3751,-1.3747,-1.3782,-1.3752,-1.3751,-1.3748,-1.3747,-1.375,-1.3788,-1.3789,-1.3789,-1.379,0,-1.3509,-1.3509,-1.3534,-1.3559,-1.3579,-1.3599,-1.3618,-1.3633,-1.3634,-1.3655,-1.3686,-1.3704,-1.374,-1.377,-1.3797,-1.3808,-1.38,-1.3799,-1.3808,-1.381,-1.3807,-1.3809,-1.3707,-1.3797,-1.3796,-1.3796,-1.3796,-1.3795,-1.3568,-1.3592,-1.3609,-1.3636,-1.365,-1.3667,-1.3691,-1.3698,-1.3724,-1.3752,-1.375,-1.3784,-1.3802,-1.3837,-1.385,-1.3877,-1.3866,-1.3878,-1.3882,-1.3885,-1.3888,-1.3802,-1.3882,-1.3881,-1.3881,-1.3881,-1.3881,0,-1.3648,-1.3658,-1.3684,-1.3709,-1.3731,-1.372,-1.374,-1.3759,-1.3789,-1.3806,-1.3829,-1.3864,-1.3892,-1.3903,-1.3931,-1.395,-1.3947,-1.3958,-1.3957,-1.3959,-1.3896,-1.3886,-1.396,-1.396,-1.396,-1.396,-1.396,-1.396,-1.3693,-1.3734,-1.3735,-1.3782,-1.3792,-1.3824,-1.3837,-1.3853,-1.3866,-1.3905,-1.3929,-1.3935,-1.395,-1.3978,-1.4003,-1.4006,-1.4017,-1.4029,-1.403,-1.3972,-1.3964,-1.3956,-1.3946,-1.4031,-1.4032,-1.4091,-1.4091,-1.4092]},{"header":{"parameterUnit":"m.s-1","parameterCategory":1,"la1":30.2991,"la2":30.254,"lo1":-89.0895,"lo2":-89.0444,"dy":0.0017,"dx":0.0017,"nx":28,"ny":28,"refTime":"2026-01-03T03:00:00:Z","depth":0,"parameterNumber":3,"parameterNumberName":"V-component_of_WINDS"},"data":[0,0,0,0,0,0,0,0,0,0,0,0,0,0,0,0,0,0,0,0,0,0,0,0,0,0,0,0,0,0,0,0,0,0,0,0,0,0,0,0,0,0,0,0,0,0,0,0,0,0,0,0,0,0,0,0,0,0,-6.7818,-6.7819,0,-6.786,-6.7861,-6.7861,-6.7774,-6.7771,-6.7768,-6.7765,-6.7803,-6.7806,-6.781,0,0,0,0,0,0,0,0,0,0,0,0,0,-6.7657,-6.766,-6.7818,-6.7819,-6.7819,-6.786,-6.7861,-6.7861,-6.7774,-6.7771,-6.7767,-6.7764,-6.7801,-6.7806,-6.781,0,0,0,0,0,0,0,0,0,0,0,0,0,-6.7716,-6.7661,-6.7818,-6.7781,-6.7778,-6.786,-6.7861,-6.7861,-6.7775,-6.7771,-6.7766,-6.7762,-6.78,-6.7805,-6.7811,-6.7929,0,0,-6.7827,-6.783,0,0,0,0,0,0,0,0,-6.7712,-6.7721,-6.7786,-6.7783,-6.778,-6.7807,-6.7817,-6.7884,-6.7776,-6.7776,-6.7765,-6.776,-6.7807,-6.7812,-6.7829,-6.7931,-6.7933,-6.7828,-6.7831,-6.7833,-6.7835,0,0,0,0,0,0,0,-6.7708,-6.7719,-6.7834,-6.7787,-6.7783,-6.776,-6.7764,-6.783,-6.7815,-6.7775,-6.7769,-6.7776,-6.7805,-6.7824,-6.7829,-6.7933,-6.7828,-6.7833,-6.7836,-6.7838,-6.8135,-6.8139,0,0,0,0,0,0,-6.771,-6.7716,-6.7833,-6.7836,-6.7735,-6.7767,-6.7771,-6.7803,-6.7814,-6.7811,-6.7779,-6.7771,-6.7817,-6.7823,-6.783,-6.797,-6.7833,-6.7839,-6.7842,-6.813,-6.8136,-6.8141,0,0,0,0,0,0,-6.7707,-6.7721,-6.7831,-6.7775,-6.7787,-6.7774,-6.7811,-6.7806,-6.7825,-6.7817,-6.7813,-6.7802,-6.7814,-6.7822,-6.7906,-6.797,-6.7841,-6.7846,-6.8125,-6.8132,-6.8138,-6.825,0,0,0,0,0,0,-6.7702,-6.772,-6.7767,-6.7776,-6.779,-6.7908,-6.7815,-6.781,-6.7835,-6.7825,-6.7837,-6.7835,-6.7811,-6.7898,-6.7911,-6.7975,-6.785,-6.8119,-6.8128,-6.8136,-6.8241,-6.826,-6.8277,0,0,0,0,0,-6.7697,-6.7795,-6.7769,-6.7784,-6.7848,-6.7912,-6.792,-6.7892,-6.7841,-6.7886,-6.7881,-6.7834,-6.7961,-6.7907,-6.7921,-6.7988,-6.8115,-6.8125,-6.8136,-6.8233,-6.8256,-6.8276,0,0,0,0,0,0,-6.779,-6.7795,-6.7767,-6.7872,-6.7893,-6.7897,-6.7954,-6.7918,-6.7952,-6.7942,-6.7904,-6.7907,-6.7998,-6.8001,-6.7941,-6.8103,-6.8029,-6.8043,-6.8098,-6.812,-6.8138,-6.8135,-6.7855,0,0,0,0,0,-6.7824,-6.7878,-6.7878,-6.797,-6.7982,-6.7967,-6.7993,-6.7971,-6.799,-6.7998,-6.7998,-6.8017,-6.8061,-6.8091,-6.8131,-6.8241,-6.8242,-6.8294,-6.8312,-6.8326,-6.8338,-6.8397,-6.842,-6.8175,-6.8175,-6.8175,0,0,-6.7892,-6.7901,-6.7937,-6.7989,-6.8003,-6.8058,-6.7974,-6.8036,-6.8075,-6.8006,-6.8086,-6.8087,-6.8106,-6.8203,-6.8246,-6.8208,-6.8406,-6.834,-6.8352,-6.8355,-6.841,-6.8433,-6.8453,-6.8182,-6.8181,-6.818,0,0,-6.8044,-6.8057,-6.8136,-6.8152,-6.8174,-6.8163,-6.8182,-6.8193,-6.8192,-6.8272,-6.8221,-6.8267,-6.8344,-6.8359,-6.8377,-6.8538,-6.8496,-6.8552,-6.8645,-6.8703,-6.8722,-6.8739,-6.8795,-6.8816,-6.8564,-6.8564,-6.8564,0,-6.8125,-6.8208,-6.818,-6.8246,-6.827,-6.8212,-6.8291,-6.8307,-6.834,-6.8357,-6.8315,-6.8411,-6.842,-6.852,-6.8559,-6.8576,-6.8595,-6.855,-6.8722,-6.8738,-6.8754,-6.8807,-6.8829,-6.8571,-6.857,-6.8569,-6.8569,0,-6.8307,-6.8365,-6.8426,-6.8462,-6.8493,-6.8565,-6.8546,-6.858,-6.8555,-6.8549,-6.863,-6.8638,-6.8679,-6.8702,-6.8677,-6.8799,-6.8775,-6.8728,-6.8652,-6.8784,-6.8834,-6.8854,-6.858,-6.8578,-6.8576,-6.8574,0,0,-6.8518,-6.854,-6.8563,-6.8579,-6.86,-6.8644,-6.8712,-6.8755,-6.8785,-6.881,-6.8866,-6.8933,-6.8891,-6.8911,-6.8887,-6.8938,-6.9064,-6.8885,-6.8884,-6.8917,-6.9199,-6.9234,-6.9258,-6.9037,-6.9041,-6.9044,-6.9197,0,-6.8669,-6.879,-6.8767,-6.8884,-6.8937,-6.8884,-6.8944,-6.8962,-6.8958,-6.9001,-6.8995,-6.9044,-6.8984,-6.8996,-6.9044,-6.9039,-6.912,-6.9028,-6.9087,-6.909,-6.9084,-6.9284,-6.9321,-6.9465,-6.9216,-6.922,-6.9222,0,-6.8861,-6.8897,-6.902,-6.9034,-6.9055,-6.911,-6.9147,-6.9189,-6.9209,-6.9202,-6.9227,-6.9194,-6.9261,-6.9186,-6.9276,-6.9214,-6.9237,-6.9239,-6.9244,-6.9247,-6.9163,-6.9293,-6.951,-6.9532,-6.9252,-6.925,-6.9248,0,-6.9002,-6.9081,-6.9165,-6.918,-6.9199,-6.9238,-6.9247,-6.9263,-6.9291,-6.9323,-6.934,-6.9379,-6.94,-6.943,-6.9408,-6.9355,-6.9502,-6.9425,-6.9497,-6.9498,-6.953,-6.9528,-6.9754,-6.9546,-6.9546,-6.9546,-6.9545,0,-6.9173,-6.925,-6.9229,-6.928,-6.9365,-6.9338,-6.9422,-6.9424,-6.9439,-6.9489,-6.9445,-6.9492,-6.9461,-6.9505,-6.9488,-6.9566,-6.9576,-6.9571,-6.9566,-6.9575,-6.9576,-6.9589,-6.9578,-6.9551,-6.955,-6.9549,-6.9548,0,-6.9344,-6.9333,-6.9422,-6.9433,-6.9438,-6.95,-6.9508,-6.9556,-6.9549,-6.9613,-6.9626,-6.9615,-6.9665,-6.9647,-6.9699,-6.9688,-6.9787,-6.9769,-6.9781,-6.9777,-6.985,-6.9843,-7.0091,-7.0122,-6.9896,-6.9898,-6.99,0,-6.9454,-6.9513,-6.9531,-6.9563,-6.9576,-6.9627,-6.9656,-6.9631,-6.9662,-6.969,-6.9734,-6.9781,-6.9817,-6.9899,-6.9894,-6.9934,-6.9916,-7.0001,-6.9922,-6.993,-6.9917,-6.9914,-6.9919,-7.0016,-7.0018,-7.0021,-7.0022,0,-6.9649,-6.9641,-6.9685,-6.9728,-6.9764,-6.9796,-6.9823,-6.9851,-6.9827,-6.9864,-6.9916,-6.9945,-7.0,-7.0047,-7.0083,-7.009,-7.0052,-7.0048,-7.0066,-7.0076,-7.0081,-7.0079,-6.9824,-7.0042,-7.004,-7.0038,-7.0037,-7.0036,-6.9792,-6.9842,-6.9864,-6.9915,-6.9933,-6.996,-7.0006,-7.0006,-7.005,-7.0095,-7.0077,-7.0137,-7.0155,-7.02,-7.0213,-7.0258,-7.0225,-7.0253,-7.0259,-7.0266,-7.0276,-7.0075,-7.0265,-7.0264,-7.0264,-7.0263,-7.0263,0,-6.9985,-6.9997,-7.0044,-7.0085,-7.0125,-7.0089,-7.0118,-7.0152,-7.0207,-7.0228,-7.0266,-7.0326,-7.0371,-7.0371,-7.0413,-7.0449,-7.0433,-7.0461,-7.0457,-7.046,-7.0303,-7.0283,-7.0473,-7.0473,-7.0473,-7.0473,-7.0473,-7.0473,-7.009,-7.0173,-7.0168,-7.0259,-7.027,-7.0331,-7.035,-7.0374,-7.0392,-7.0461,-7.05,-7.0501,-7.0513,-7.0556,-7.0596,-7.0594,-7.0611,-7.0646,-7.0638,-7.0492,-7.0471,-7.0451,-7.0431,-7.065,-7.065,-7.079,-7.0792,-7.0793]}]]